Flag for Micronesia Weather past 2 weeks in Colonia, Yap, Micronesia

Now
88 °F

Broken clouds.


Feels Like: 102 °F
Forecast: 80 / 86 °F
Wind: 8 mph from South

Location: Yap Island

Current Time: Sep 18, 2014 at 12:14:20 PM

Latest Report: Sep 18, 2014 at 10:50 AM


Visibility: 12 mi

Pressure: 29.90 "Hg

Humidity: 72%

Dew point: 78 °F

Location of ColoniaLocation

Historic Weather in Colonia — Graph

°F

Colonia temperature yesterday

Maximum temperature yesterday: 88 °F (at 1:50 PM)
Minimum temperature yesterday: 77 °F (at 1:50 AM)
Average temperature yesterday: 83 °F

Past Weeks' High & Low Weather Summary

 TemperatureHumidityPressure
High89 °F (Sep 9, 2:50 PM)96% (Sep 12, 5:50 AM)29.92 "Hg (Sep 12, 5:50 AM)
Low75 °F (Sep 5, 11:50 PM)69% (Sep 3, 12:55 PM)29.65 "Hg (Sep 16, 3:50 PM)
Average81 °F84%29.80 "Hg
* Reported Sep 3 10:52 AM — Sep 18 10:50 AM, Colonia, Weather by CustomWeather, © 2014

Note: Actual official high and low records may vary slightly from our data, if they occured in-between our weather recording intervals... More about our weather records

Advertising

Colonia weather history for previous 24 hours

 ConditionsComfort  
Time TempWeatherWind HumidityBarometerVisibility
10:50 AM
Sep 18
88 °FBroken clouds.8 mph72%29.90 "Hg12 mi
9:52 AM88 °FBroken clouds.8 mph74%29.92 "Hg12 mi
8:50 AM86 °FBroken clouds.8 mph78%29.91 "Hg12 mi
7:55 AM84 °FBroken clouds.No wind84%29.88 "Hg12 mi
6:53 AM80 °FPartly cloudy.2 mph89%29.86 "Hg12 mi
5:54 AM80 °FPartly cloudy.6 mph89%29.85 "Hg12 mi
4:52 AM81 °FPartly cloudy.3 mph86%29.83 "Hg12 mi
3:55 AM81 °FMostly cloudy.5 mph86%29.83 "Hg12 mi
2:51 AM82 °FMostly cloudy.6 mph85%29.83 "Hg12 mi
1:53 AM82 °FMostly cloudy.6 mph84%29.85 "Hg12 mi
12:52 AM82 °FPartly cloudy.10 mph84%29.85 "Hg12 mi
11:51 PM
Sep 17
83 °FPartly cloudy.9 mph84%29.87 "Hg12 mi
10:50 PM83 °FPartly cloudy.8 mph84%29.86 "Hg12 mi
9:51 PM83 °FPartly cloudy.9 mph85%29.85 "Hg12 mi
8:50 PM83 °FPartly cloudy.9 mph82%29.84 "Hg12 mi
7:50 PM83 °FPartly cloudy.12 mph81%29.81 "Hg12 mi
5:50 PM85 °FBroken clouds.15 mph79%29.76 "Hg12 mi
4:50 PM87 °FMore clouds than sun.12 mph77%29.76 "Hg12 mi
2:52 PM87 °FBroken clouds.14 mph76%29.74 "Hg12 mi
1:50 PM88 °FPartly sunny.14 mph75%29.74 "Hg11 mi
12:50 PM87 °FPartly sunny.14 mph78%29.76 "Hg12 mi
Weather by CustomWeather, © 2014

See weather overviewHow to use our weather pages